Racecast

Andrew Lutz

Primero (CO) · 11 · CO D2A2A · Compare head to head

Athlete rating 103.1 2018 XC season
Best race 110.9 TF
Races 35
Seasons 3 2017 — 2019

RankedNation #102921·CO #2042·CO D2A #483·Team #5 ?

Speed rating — all races

Cross Country

XC speed rating

2018 XC 99.1

Primero (CO) · Grade 11

Date Meet Event Result Place Rating Difficulty PR/SR Flags
2018-10-19 Babcock Park 5000m 19:40.2 37th · 3rd on team 105.8 +0.009 ★PR ★CR SR CSR RSR
2018-10-12 Monte Vista Golf Course 5000m 23:29.2 69th · 4th on team 92.3 +0.046 ★CR CSR
2018-08-31 Babcock Park 5000m 21:09 49th · 2nd on team 99.0 +0.009 PR CR SR CSR RSR

Track & Field

TF speed rating

2019 TF 101.6

Primero (CO) · Grade 11

Date Meet Event Result Place Rating Difficulty PR/SR Flags
2019-05-03 Blossom Invitational 800m 2:40.77 25th · 3rd on team 97.7 -0.003
2019-05-03 Blossom Invitational 400m 1:07.12 33rd · 2nd on team -0.003
2019-04-27 Springfield Invitational 800m 2:36.97 18th · 3rd on team 100.8 +0.001
2019-04-27 Springfield Invitational 400m 1:01.6 12th · 1st on team +0.001 ★PR SR
2019-04-25 Primero Invitational 800m 2:34.97 8th · 2nd on team 103.1 +0.015 SR
2019-04-25 Primero Invitational 400m 1:01.63 7th · 1st on team +0.015 PR SR
2019-04-19 La Junta Tiger Relays 1600m 5:39.62 20th · 1st on team 103.9 -0.004 SR
2019-04-19 La Junta Tiger Relays 400m 1:02.75 25th · 1st on team -0.004 PR SR
2019-04-15 Thunder-Storm Invitational 1600m 5:52.97 26th · 2nd on team 99.6 -0.006
2019-04-12 Thunderbird Invitational 1600m 5:47.29 4th · 1st on team 104.6 +0.025 RSR
2019-03-30 Center Invitational 800m 2:38.72 9th · 2nd on team 102.1 +0.028 RSR
2019-03-30 Center Invitational 1600m 5:55.34 6th · 2nd on team 102.5 +0.028 RSR
2019-03-16 The Larry Pickering Centennial Invitational 1600m 5:45.43 40th · 2nd on team 101.4 -0.011 SR RSR
2019-03-16 The Larry Pickering Centennial Invitational 800m 2:35.37 41st · 2nd on team 100.4 -0.011 SR

2018 TF 106.7

Primero (CO) · Grade 10

Date Meet Event Result Place Rating Difficulty PR/SR Flags
2018-05-10 Pueblo West Cyclone Invitational 1600m 5:21.04 20th · 2nd on team 109.7 -0.011
2018-05-05 Doherty Spartan Invitational 1600m 5:24.23 30th · 2nd on team 108.7 -0.004
2018-05-04 Canon City Blossom Invitational 1600m 5:17.5 18th · 2nd on team 110.9 -0.003 ★PR ★R SR RSR
2018-05-04 Canon City Blossom Invitational 800m 2:29.43 23rd · 3rd on team 104.8 -0.003 SR
2018-04-28 Springfield Invitational 1600m 5:22.81 7th · 2nd on team 109.9 +0.001 PR R SR RSR
2018-04-23 Ray Headley Invitational 1600m 5:22.94 14th · 2nd on team 108.5 -0.005 PR SR RSR
2018-04-23 Ray Headley Invitational 800m 2:29.91 21st · 2nd on team 104.1 -0.005 SR
2018-04-07 John Tate Challenge Cup 1600m 5:27.42 13th · 2nd on team 106.9 -0.011
2018-03-29 La Junta Open 1600m 5:28.46 22nd · 2nd on team 107.3 -0.004 RSR
2018-03-29 La Junta Open 800m 2:32.91 16th · 1st on team 102.7 -0.004 SR
2018-03-24 Lamar Savage Invitational 1600m 5:27.12 15th · 2nd on team 107.0 -0.008 PR SR RSR
2018-03-10 CSU-Pueblo Early-Bird (HS) 1600m 5:38.32 22nd · 2nd on team 104.5 -0.006 SR RSR
2018-03-10 CSU-Pueblo Early-Bird (HS) 800m 2:33.63 24th · 3rd on team 102.2 -0.006 SR

2017 TF 105.6

Primero (CO) · Grade 9

Date Meet Event Result Place Rating Difficulty PR/SR Flags
2017-05-02 High Altitude Challenge 800m 2:25.94 16th · 2nd on team 109.6 +0.020 ★PR R SR RSR
2017-05-02 High Altitude Challenge 1600m 5:32.25 8th · 2nd on team 108.2 +0.020 PR SR
2017-04-08 John Tate Challenge Cup tj 29-00.00 -0.011
2017-04-08 John Tate Challenge Cup 1600m 5:35.51 19th · 2nd on team 103.8 -0.011 PR R SR RSR
2017-04-08 John Tate Challenge Cup 800m 2:33.56 26th · 2nd on team 100.8 -0.011 PR SR